Volk, WI

1:16 AM CST on December 17, 2017 (GMT -0600)
Volk

Weather History for KVOK - January, 2013

Change the Weather History Date:

Sunday, January 20, 2013

  Actual Average Record
Temperature  
Mean Temperature 8 °F -  
Max Temperature 14 °F 21 °F 35 °F (2017)
Min Temperature 3 °F 9 °F 10 °F (2016)
Degree Days  
Heating Degree Days 56    
Moisture  
Dew Point -2 °F    
Average Humidity 66    
Maximum Humidity 79    
Minimum Humidity 41    
Precipitation  
Precipitation 0.00 in - - ()
Sea Level Pressure  
Sea Level Pressure 30.26 in    
Wind  
Wind Speed 13 mph (WNW)    
Max Wind Speed 20 mph    
Max Gust Speed 31 mph    
Visibility 9 miles    
Events Snow    
Averages and records for this station are not official NWS values.
T = Trace of Precipitation, MM = Missing Value Source: NWS Daily Summary

Daily Weather History Graph

Daily Weather History Graph

Search for Another Location

Airport or City:

Trip Planner

Search our weather history database for the weather conditions in past years. The results will help you decide how hot, cold, wet, or windy it might be!

Date:

Astronomy

Jan. 20, 2013 Rise Set
Actual Time 7:29 AM CST 4:55 PM CST
Civil Twilight 6:57 AM CST 5:27 PM CST
Nautical Twilight 6:22 AM CST 6:02 PM CST
Astronomical Twilight 5:47 AM CST 6:37 PM CST
Moon 11:57 AM CST (1/20) 2:00 AM CST (1/20)
Length of Visible Light 10h 29m
Length of Day
9h 26m
Waxing Gibbous, 66% of the Moon is Illuminated
Jan 20
Waxing Gibbous
Jan 26
Full
Feb 3
Last Quarter
Feb 10
New
Feb 17
First Quarter

Hourly Weather History & Observations

Time (CST) Temp. Windchill Dew Point Humidity Pressure Visibility Wind Dir Wind Speed Gust Speed Precip Events Conditions
12:55 AM 6.1 °F -11.6 °F -4.0 °F 63% 30.09 in 10.0 mi WNW 15.0 mph 25.3 mph N/A   Clear
1:55 AM 5.4 °F -14.8 °F -4.0 °F 65% 30.15 in 10.0 mi WNW 19.6 mph 31.1 mph N/A   Clear
2:55 AM 4.8 °F -14.9 °F -3.6 °F 68% 30.19 in 10.0 mi WNW 18.4 mph 26.5 mph N/A   Clear
3:55 AM 4.3 °F -13.2 °F -3.6 °F 70% 30.22 in 10.0 mi WNW 13.8 mph - N/A   Scattered Clouds
4:55 AM 3.7 °F -12.4 °F -4.2 °F 70% 30.25 in 10.0 mi WNW 11.5 mph 19.6 mph N/A   Clear
5:55 AM 3.2 °F -17.6 °F -4.2 °F 71% 30.27 in 10.0 mi NW 19.6 mph 23.0 mph N/A   Partly Cloudy
6:55 AM 3.2 °F -15.3 °F -4.5 °F 70% 30.29 in 10.0 mi WNW 15.0 mph - N/A   Clear
7:55 AM 3.2 °F -14.6 °F -4.5 °F 70% 30.32 in 10.0 mi WNW 13.8 mph - N/A   Clear
8:55 AM 3.2 °F -11.3 °F -4.0 °F 72% 30.33 in 10.0 mi NW 9.2 mph - N/A   Mostly Cloudy
9:55 AM 6.8 °F -7.8 °F -4.0 °F 61% 30.35 in 10.0 mi NW 10.4 mph - N/A   Mostly Cloudy
10:55 AM 8.6 °F -7.0 °F -4.0 °F 57% 30.37 in 10.0 mi NW 12.7 mph - N/A   Mostly Cloudy
11:55 AM 10.4 °F -4.1 °F -4.0 °F 52% 30.35 in 10.0 mi West 11.5 mph 21.9 mph N/A   Mostly Cloudy
12:55 PM 12.2 °F -3.7 °F -5.8 °F 45% 30.32 in 10.0 mi WNW 15.0 mph 20.7 mph N/A   Scattered Clouds
1:55 PM 12.2 °F -2.5 °F -5.8 °F 45% 30.31 in 10.0 mi West 12.7 mph - N/A   Mostly Cloudy
2:55 PM 14.0 °F 1.2 °F -5.8 °F 41% 30.30 in 10.0 mi WNW 10.4 mph - N/A   Partly Cloudy
3:55 PM 12.2 °F -3.1 °F -5.8 °F 45% 30.29 in 10.0 mi WNW 13.8 mph - N/A   Partly Cloudy
4:55 PM 10.4 °F -3.3 °F -5.8 °F 48% 30.29 in 10.0 mi WNW 10.4 mph - N/A   Partly Cloudy
5:55 PM 5.4 °F -5.2 °F -5.6 °F 61% 30.29 in 10.0 mi West 5.8 mph - N/A   Mostly Cloudy
6:55 PM 5.0 °F -8.1 °F -4.4 °F 65% 30.28 in 10.0 mi West 8.1 mph - N/A   Overcast
7:55 PM 7.7 °F -8.2 °F -3.3 °F 61% 30.28 in 10.0 mi WNW 12.7 mph - N/A   Overcast
8:55 PM 9.0 °F -4.2 °F -3.1 °F 58% 30.26 in 10.0 mi WNW 9.2 mph - N/A   Overcast
9:55 PM 8.8 °F -4.4 °F -2.2 °F 61% 30.24 in 10.0 mi WNW 9.2 mph - N/A   Mostly Cloudy
9:59 PM 8.6 °F -1.3 °F -2.2 °F 62% 30.24 in 10.0 mi WNW 5.8 mph - N/A Snow Light Snow
10:05 PM 8.6 °F -3.7 °F -2.2 °F 62% 30.24 in 10.0 mi West 8.1 mph - N/A   Mostly Cloudy
10:24 PM 8.6 °F -4.7 °F -0.4 °F 67% 30.24 in 10.0 mi WNW 9.2 mph 19.6 mph N/A Snow Light Snow
10:50 PM 8.6 °F -3.7 °F 1.4 °F 73% 30.24 in 10.0 mi WNW 8.1 mph - N/A Snow Light Snow
10:55 PM 8.1 °F -6.2 °F 1.4 °F 74% 30.23 in 9.0 mi WNW 10.4 mph - 0.00 in Snow Light Snow
11:07 PM 8.6 °F -7.0 °F 3.2 °F 79% 30.23 in 2.5 mi WNW 12.7 mph - N/A Snow Light Snow
11:09 PM 8.6 °F -8.3 °F 3.2 °F 79% 30.23 in 3.0 mi WNW 15.0 mph - N/A Snow Light Snow
11:14 PM 6.8 °F -8.6 °F 1.4 °F 79% 30.23 in 7.0 mi West 11.5 mph - N/A Snow Light Snow
11:17 PM 6.8 °F -9.3 °F 1.4 °F 79% 30.23 in 10.0 mi West 12.7 mph - N/A   Mostly Cloudy
11:21 PM 6.8 °F -11.3 °F 1.4 °F 79% 30.23 in 10.0 mi WNW 16.1 mph 20.7 mph N/A   Overcast
11:22 PM 6.8 °F -10.7 °F -0.4 °F 72% 30.23 in 10.0 mi WNW 15.0 mph 20.7 mph N/A   Mostly Cloudy
11:23 PM 6.8 °F -8.6 °F -0.4 °F 72% 30.23 in 10.0 mi West 11.5 mph 20.7 mph N/A   Overcast
11:29 PM 6.8 °F -9.3 °F -0.4 °F 72% 30.23 in 10.0 mi WNW 12.7 mph 20.7 mph N/A Snow Light Snow
11:41 PM 6.8 °F -10.7 °F -0.4 °F 72% 30.22 in 10.0 mi WNW 15.0 mph - N/A   Overcast
11:50 PM 5.0 °F -13.0 °F -0.4 °F 78% 30.22 in 8.0 mi West 15.0 mph - N/A Snow Light Snow
11:55 PM 5.5 °F -14.0 °F 0.3 °F 79% 30.22 in 4.0 mi WNW 18.4 mph 24.2 mph 0.00 in Snow Light Snow